FW9262 Weather Reports


time (UTC)temp
C
wind
direction
speed
KPH
gust
KPH
rain 1hr
cm
rain 24hr
cm
rain mn
cm
humidity
%
barometer
mb
20260904193025 25 172 4.8 9.7 0.00 0.00 0.00 66 1016.3
20260904192524 25 281 1.6 3.2 0.00 0.00 0.00 65 1016.3
20260904192020 25 21 1.6 6.4 0.00 0.00 0.00 64 1016.3
20260904191516 25 283 1.6 9.7 0.00 0.00 0.00 64 1016.3
20260904191013 25 214 3.2 6.4 0.00 0.00 0.00 64 1016.6
20260904190508 26 293 1.6 3.2 0.00 0.00 0.00 63 1016.6
20260904190004 27 273 6.4 9.7 0.00 0.00 0.00 59 1016.6
20260904185500 26 315 4.8 6.4 0.00 0.00 0.00 63 1017.0
20260904184955 25 273 1.6 4.8 0.00 0.00 0.00 62 1016.6
20260904184454 26 262 6.4 9.7 0.00 0.00 0.00 59 1016.6
20260904183950 26 324 3.2 4.8 0.00 0.00 0.00 61 1016.6
20260904183445 26 251 6.4 9.7 0.00 0.00 0.00 59 1017.0
20260904182940 26 348 3.2 6.4 0.00 0.00 0.00 59 1017.0
20260904182436 27 318 0.0 3.2 0.00 0.00 0.00 60 1016.6
20260904181936 26 136 3.2 4.8 0.00 0.00 0.00 59 1016.6
20260904181431 25 341 1.6 4.8 0.00 0.00 0.00 63 1016.6
20260904180926 25 308 3.2 3.2 0.00 0.00 0.00 63 1017.0
20260904180421 25 210 1.6 4.8 0.00 0.00 0.00 63 1017.0
20260904175921 24 248 3.2 4.8 0.00 0.00 0.00 65 1017.0
20260904175419 24 282 1.6 6.4 0.00 0.00 0.00 66 1017.0
20260904174914 24 260 3.2 9.7 0.00 0.00 0.00 65 1017.0
20260904174409 24 211 1.6 4.8 0.00 0.00 0.00 67 1017.0
20260904173906 24 263 6.4 6.4 0.00 0.00 0.00 66 1017.0
20260904173401 23 329 3.2 4.8 0.00 0.00 0.00 69 1017.0
20260904172856 23 245 3.2 3.2 0.00 0.00 0.00 70 1016.6
20260904172356 23 274 3.2 4.8 0.00 0.00 0.00 70 1017.0
20260904171851 23 281 4.8 6.4 0.00 0.00 0.00 69 1016.6
20260904171346 25 267 1.6 9.7 0.00 0.00 0.00 68 1016.6
20260904170842 25 271 0.0 4.8 0.00 0.00 0.00 68 1016.6
20260904170338 25 260 3.2 9.7 0.00 0.00 0.00 67 1016.6
20260904165833 24 342 0.0 0.0 0.00 0.00 0.00 66 1016.6
20260904165331 23 345 0.0 1.6 0.00 0.00 0.00 69 1016.6
20260904164827 24 338 1.6 4.8 0.00 0.00 0.00 67 1016.3
20260904164321 24 295 1.6 3.2 0.00 0.00 0.00 66 1016.6
20260904163817 24 272 1.6 4.8 0.00 0.00 0.00 66 1016.6
20260904163312 24 86 3.2 4.8 0.00 0.00 0.00 64 1016.6
20260904162811 24 76 1.6 3.2 0.00 0.00 0.00 66 1016.3
20260904162307 23 4 1.6 3.2 0.00 0.00 0.00 66 1016.3
20260904161802 23 347 0.0 3.2 0.00 0.00 0.00 68 1016.3
20260904161302 22 11 0.0 3.2 0.00 0.00 0.00 73 1016.3
20260904160757 22 201 1.6 3.2 0.00 0.00 0.00 72 1016.3
20260904160252 22 351 0.0 0.0 0.00 0.00 0.00 73 1016.3
20260904155747 22 350 1.6 4.8 0.00 0.00 0.00 73 1016.3
20260904155247 23 1 1.6 3.2 0.00 0.00 0.00 72 1016.3
20260904154745 22 346 0.0 4.8 0.00 0.00 0.00 74 1016.3
20260904154240 23 340 1.6 3.2 0.00 0.00 0.00 72 1016.3
20260904153736 23 0 1.6 4.8 0.00 0.00 0.00 73 1016.0
20260904153231 23 67 3.2 3.2 0.00 0.00 0.00 72 1016.3
20260904152727 23 352 1.6 3.2 0.00 0.00 0.00 72 1016.3
20260904152222 22 1 1.6 4.8 0.00 0.00 0.00 75 1016.3
20260904151717 22 46 1.6 3.2 0.00 0.00 0.00 77 1016.3
20260904151216 22 48 0.0 1.6 0.00 0.00 0.00 76 1016.3
20260904150712 22 63 1.6 4.8 0.00 0.00 0.00 76 1016.3
20260904150207 22 12 0.0 3.2 0.00 0.00 0.00 76 1016.0
20260904145705 22 32 1.6 3.2 0.00 0.00 0.00 76 1016.3
20260904145201 22 345 0.0 1.6 0.00 0.00 0.00 77 1016.0
20260904144656 21 8 3.2 3.2 0.00 0.00 0.00 78 1016.0
20260904144152 21 356 0.0 0.0 0.00 0.00 0.00 80 1016.0
20260904143647 21 8 0.0 0.0 0.00 0.00 0.00 81 1016.0
20260904143144 20 358 0.0 0.0 0.00 0.00 0.00 81 1016.0
20260904142640 20 358 0.0 1.6 0.00 0.00 0.00 82 1016.0
20260904142136 20 347 0.0 1.6 0.00 0.00 0.00 84 1015.6
20260904141630 20 15 0.0 0.0 0.00 0.00 0.00 88 1015.6
20260904141126 19 349 0.0 0.0 0.00 0.00 0.00 90 1015.6
20260904140621 18 350 0.0 0.0 0.00 0.00 0.00 92 1015.6
20260904140121 18 358 0.0 0.0 0.00 0.00 0.00 92 1015.6
20260904135615 17 346 0.0 0.0 0.00 0.00 0.00 92 1015.6
20260904135111 17 344 0.0 0.0 0.00 0.00 0.00 92 1015.3
20260904134606 17 348 0.0 0.0 0.00 0.00 0.00 92 1015.3
20260904134100 17 345 0.0 0.0 0.00 0.00 0.00 92 1015.3
20260904133555 17 343 0.0 0.0 0.00 0.00 0.00 92 1015.3
20260904133051 17 343 0.0 0.0 0.00 0.00 0.00 92 1015.3
20260904132550 17 337 0.0 0.0 0.00 0.00 0.00 92 1014.9
20260904132045 17 338 0.0 0.0 0.00 0.00 0.00 92 1015.3
20260904131545 17 337 0.0 0.0 0.00 0.00 0.00 92 1015.3
20260904131041 17 0 0.0 1.6 0.00 0.00 0.00 92 1015.3
20260904130540 17 343 0.0 0.0 0.00 0.00 0.00 92 1014.9
20260904130035 17 342 0.0 0.0 0.00 0.00 0.00 92 1015.3
20260904125532 17 342 0.0 0.0 0.00 0.00 0.00 92 1015.3
20260904125026 17 334 0.0 0.0 0.00 0.00 0.00 92 1015.3
20260904124522 17 330 0.0 0.0 0.00 0.00 0.00 92 1015.3
20260904124017 17 334 0.0 0.0 0.00 0.00 0.00 92 1015.3
20260904123517 17 334 0.0 0.0 0.00 0.00 0.00 92 1014.9
20260904123013 17 338 0.0 0.0 0.00 0.00 0.00 92 1015.3
20260904122507 17 339 0.0 0.0 0.00 0.00 0.00 92 1014.9
20260904122002 17 339 0.0 0.0 0.00 0.00 0.00 92 1014.9
20260904121458 17 338 0.0 0.0 0.00 0.00 0.00 92 1014.9
20260904120954 17 341 0.0 0.0 0.00 0.00 0.00 92 1014.9
20260904120449 17 341 0.0 0.0 0.00 0.00 0.00 92 1014.9
20260904115944 17 342 0.0 0.0 0.00 0.00 0.00 92 1014.9
20260904115440 17 334 0.0 0.0 0.00 0.00 0.00 92 1015.3
20260904114934 17 340 0.0 0.0 0.00 0.00 0.00 92 1014.9
20260904114434 17 337 0.0 0.0 0.00 0.00 0.00 92 1014.9
20260904113930 17 344 0.0 0.0 0.00 0.00 0.00 92 1014.9
20260904113428 17 344 0.0 0.0 0.00 0.00 0.00 92 1015.3
20260904112928 17 342 0.0 0.0 0.00 0.00 0.00 92 1014.9
20260904112424 16 341 0.0 0.0 0.00 0.00 0.00 91 1014.9
20260904111920 16 341 0.0 0.0 0.00 0.00 0.00 91 1014.9
20260904111414 16 343 0.0 0.0 0.00 0.00 0.00 91 1014.9
20260904110911 16 344 0.0 0.0 0.00 0.00 0.00 91 1014.9
20260904110409 17 340 0.0 0.0 0.00 0.00 0.00 91 1014.9
20260904105905 17 337 0.0 0.0 0.00 0.00 0.00 91 1014.9
20260904105400 17 333 0.0 0.0 0.00 0.00 0.00 91 1014.9
20260904104855 17 330 0.0 0.0 0.00 0.00 0.00 91 1014.9
20260904104349 17 337 0.0 0.0 0.00 0.00 0.00 91 1015.3
20260904103846 17 343 0.0 1.6 0.00 0.00 0.00 91 1014.9
20260904103341 17 340 0.0 1.6 0.00 0.00 0.00 91 1014.9
20260904102837 17 339 0.0 0.0 0.00 0.00 0.00 91 1014.9
20260904102332 17 335 0.0 0.0 0.00 0.00 0.00 91 1014.9
20260904101828 17 340 0.0 0.0 0.00 0.00 0.00 91 1014.9
20260904101324 17 354 0.0 0.0 0.00 0.00 0.00 91 1014.9
20260904100820 17 344 0.0 0.0 0.00 0.00 0.00 91 1014.9
20260904100315 17 342 0.0 0.0 0.00 0.00 0.00 91 1015.3
20260904095810 17 344 0.0 1.6 0.00 0.00 0.00 91 1014.9
20260904095306 17 352 0.0 0.0 0.00 0.00 0.00 91 1014.9
20260904094800 17 348 0.0 0.0 0.00 0.00 0.00 91 1014.9
20260904094254 17 343 0.0 0.0 0.00 0.00 0.00 91 1014.9
20260904093750 17 342 0.0 0.0 0.00 0.00 0.00 91 1014.9
20260904093245 17 344 0.0 0.0 0.00 0.00 0.00 91 1014.9
20260904092740 17 340 0.0 0.0 0.00 0.00 0.00 91 1014.9
20260904092237 17 26 0.0 0.0 0.00 0.00 0.00 91 1014.9
20260904091733 17 340 0.0 0.0 0.00 0.00 0.00 91 1014.9
20260904091227 17 345 0.0 0.0 0.00 0.00 0.00 91 1014.9
20260904090723 17 343 0.0 0.0 0.00 0.00 0.00 90 1014.6
20260904090218 17 340 0.0 0.0 0.00 0.00 0.00 90 1014.9
20260904085713 17 336 0.0 1.6 0.00 0.00 0.00 90 1014.9
20260904085208 17 338 0.0 0.0 0.00 0.00 0.00 90 1014.9
20260904084703 17 336 0.0 0.0 0.00 0.00 0.00 90 1014.9
20260904084159 17 343 0.0 0.0 0.00 0.00 0.00 90 1014.9
20260904083655 17 341 0.0 0.0 0.00 0.00 0.00 90 1014.9
20260904083151 17 342 0.0 0.0 0.00 0.00 0.00 90 1014.9
20260904082646 17 344 0.0 0.0 0.00 0.00 0.00 90 1015.3
20260904082141 17 344 0.0 0.0 0.00 0.00 0.00 90 1014.9
20260904081637 17 336 0.0 0.0 0.00 0.00 0.00 90 1014.9
20260904081132 17 334 0.0 0.0 0.00 0.00 0.00 90 1014.9
20260904080627 18 343 0.0 0.0 0.00 0.00 0.00 90 1014.9
20260904080123 18 332 0.0 0.0 0.00 0.00 0.00 90 1014.9
20260904075620 18 337 0.0 0.0 0.00 0.00 0.00 90 1015.6
20260904075119 18 344 0.0 0.0 0.00 0.00 0.00 90 1015.6
20260904074618 18 344 0.0 0.0 0.00 0.00 0.00 89 1015.3
20260904074113 18 342 0.0 0.0 0.00 0.00 0.00 90 1015.3
20260904073608 18 347 0.0 0.0 0.00 0.00 0.00 90 1015.3
20260904073105 18 347 0.0 0.0 0.00 0.00 0.00 89 1015.3
20260904072600 18 350 0.0 0.0 0.00 0.00 0.00 89 1015.3
20260904072055 18 342 0.0 0.0 0.00 0.00 0.00 89 1015.3
20260904071551 18 348 0.0 0.0 0.00 0.00 0.00 89 1015.3
20260904071046 18 346 0.0 0.0 0.00 0.00 0.00 89 1015.3
20260904070544 18 350 0.0 0.0 0.00 0.00 0.00 89 1014.9
20260904070040 18 352 0.0 0.0 0.00 0.00 0.00 89 1014.9
20260904065534 18 352 0.0 0.0 0.00 0.00 0.00 89 1015.3
20260904065031 18 348 0.0 0.0 0.00 0.00 0.00 89 1015.3
20260904064527 18 344 0.0 0.0 0.00 0.00 0.00 89 1015.3
20260904064021 18 343 0.0 0.0 0.00 0.00 0.00 89 1014.9
20260904063518 18 343 0.0 0.0 0.00 0.00 0.00 89 1014.9
20260904063018 18 347 0.0 0.0 0.00 0.00 0.00 89 1014.9
20260904062514 18 346 0.0 0.0 0.00 0.00 0.00 88 1014.9
20260904062009 18 342 0.0 0.0 0.00 0.00 0.00 88 1014.9
20260904061505 18 348 0.0 0.0 0.00 0.00 0.00 88 1014.9
20260904061001 18 341 0.0 0.0 0.00 0.00 0.00 88 1014.9
20260904060457 18 345 0.0 0.0 0.00 0.00 0.00 88 1014.9
20260904055953 18 346 0.0 0.0 0.00 0.00 0.00 87 1014.9
20260904055448 18 347 0.0 0.0 0.00 0.00 0.00 87 1014.9
20260904054943 18 351 0.0 0.0 0.00 0.00 0.00 87 1014.9
20260904054439 19 343 0.0 0.0 0.00 0.00 0.00 87 1014.6
20260904053935 19 348 0.0 0.0 0.00 0.00 0.00 86 1014.9
20260904053434 19 347 0.0 0.0 0.00 0.00 0.00 86 1014.9
20260904052930 19 345 0.0 0.0 0.00 0.00 0.00 86 1014.9
20260904052426 19 339 0.0 0.0 0.00 0.00 0.00 85 1014.9
20260904051922 20 338 0.0 0.0 0.00 0.00 0.00 85 1014.9
20260904051418 20 340 0.0 0.0 0.00 0.00 0.00 85 1014.9
20260904050912 20 327 0.0 1.6 0.00 0.00 0.00 84 1015.3
20260904050409 20 328 0.0 1.6 0.00 0.00 0.00 84 1014.9
20260904045908 20 329 0.0 0.0 0.00 0.00 0.00 83 1014.9
20260904045404 20 333 0.0 0.0 0.00 0.00 0.00 83 1014.9
20260904044903 20 334 1.6 1.6 0.00 0.00 0.00 83 1014.9
20260904044400 20 334 0.0 1.6 0.00 0.00 0.00 82 1014.9
20260904043856 20 343 0.0 0.0 0.00 0.00 0.00 82 1014.9
20260904043352 20 339 0.0 1.6 0.00 0.00 0.00 81 1014.9
20260904042847 20 310 0.0 1.6 0.00 0.00 0.00 81 1014.9
20260904042343 20 331 0.0 1.6 0.00 0.00 0.00 81 1014.9
20260904041837 20 342 0.0 1.6 0.00 0.00 0.00 81 1014.9
20260904041334 20 340 0.0 1.6 0.00 0.00 0.00 81 1014.9
20260904040830 20 338 1.6 4.8 0.00 0.00 0.00 81 1014.6
20260904040325 20 300 1.6 1.6 0.00 0.00 0.00 81 1014.9
20260904035821 20 286 1.6 3.2 0.00 0.00 0.00 82 1014.9
20260904035317 20 284 1.6 3.2 0.00 0.00 0.00 83 1014.9
20260904034815 20 343 0.0 1.6 0.00 0.00 0.00 83 1014.6
20260904034311 20 339 0.0 1.6 0.00 0.00 0.00 83 1014.9
20260904033807 20 340 0.0 1.6 0.00 0.00 0.00 83 1014.6
20260904033303 20 271 1.6 1.6 0.00 0.00 0.00 83 1014.6
20260904032759 20 297 1.6 3.2 0.00 0.00 0.00 83 1014.6
20260904032258 20 319 0.0 1.6 0.00 0.00 0.00 83 1014.3
20260904031753 20 271 3.2 4.8 0.00 0.00 0.00 83 1014.6
20260904031248 20 231 3.2 4.8 0.00 0.00 0.00 83 1014.6
20260904030744 20 273 3.2 4.8 0.00 0.00 0.00 83 1014.3
20260904030239 20 295 3.2 4.8 0.00 0.00 0.00 83 1014.3
20260904025736 20 292 1.6 3.2 0.00 0.00 0.00 83 1014.3
20260904025230 20 311 1.6 3.2 0.00 0.00 0.00 82 1014.3
20260904024721 20 289 3.2 4.8 0.00 0.00 0.00 82 1014.3
20260904024215 20 265 3.2 4.8 0.00 0.00 0.00 82 1014.3
20260904023711 20 295 3.2 6.4 0.00 0.00 0.00 82 1014.3
20260904023208 20 324 1.6 3.2 0.00 0.00 0.00 82 1014.3
20260904022707 20 275 3.2 4.8 0.00 0.00 0.00 82 1014.3
20260904022204 20 277 4.8 4.8 0.00 0.00 0.00 82 1014.3
20260904021700 20 313 1.6 6.4 0.00 0.00 0.00 82 1013.9
20260904021154 21 252 1.6 4.8 0.00 0.00 0.00 82 1014.3
20260904020651 21 342 1.6 3.2 0.00 0.00 0.00 82 1014.3
20260904020144 21 330 1.6 4.8 0.00 0.00 0.00 81 1014.3
20260904015644 21 328 0.0 3.2 0.00 0.00 0.00 81 1014.3
20260904015143 21 323 0.0 6.4 0.00 0.00 0.00 81 1014.3
20260904014642 21 342 3.2 4.8 0.00 0.00 0.00 80 1014.3
20260904014138 21 305 3.2 6.4 0.00 0.00 0.00 79 1014.3
20260904013634 22 261 4.8 6.4 0.00 0.00 0.00 78 1014.3
20260904013130 22 10 3.2 9.7 0.00 0.00 0.00 78 1014.3
20260904012626 22 285 1.6 9.7 0.00 0.00 0.00 77 1014.3
20260904012124 22 311 1.6 3.2 0.00 0.00 0.00 77 1014.3
20260904011623 22 261 3.2 6.4 0.00 0.00 0.00 77 1014.3
20260904011119 22 325 3.2 6.4 0.00 0.00 0.00 76 1014.3
20260904010615 22 278 3.2 6.4 0.00 0.00 0.00 78 1014.3
20260904010111 22 325 3.2 3.2 0.00 0.00 0.00 78 1014.3
20260904005606 22 237 3.2 9.7 0.00 0.00 0.00 76 1014.6
20260904005101 22 254 6.4 9.7 0.00 0.00 0.00 74 1014.3
20260904004557 22 217 3.2 11.3 0.00 0.00 0.00 74 1014.3
20260904004051 22 195 1.6 9.7 0.00 0.00 0.00 73 1014.6
20260904003548 22 214 1.6 9.7 0.00 0.00 0.00 75 1014.3
20260904003043 22 253 8.0 11.3 0.00 0.00 0.00 74 1014.3
20260904002539 22 292 4.8 9.7 0.00 0.00 0.00 75 1014.3
20260904002038 23 306 8.0 11.3 0.00 0.00 0.00 72 1014.6
20260904001535 23 317 1.6 6.4 0.00 0.00 0.00 71 1014.6
20260904001033 23 215 4.8 4.8 0.00 0.00 0.00 70 1014.6
20260904000533 23 218 4.8 9.7 0.00 0.00 0.00 70 1014.6
20260904000029 24 246 4.8 6.4 0.00 0.00 0.00 68 1014.6
20260903235524 23 268 4.8 9.7 0.00 0.00 0.00 72 1014.6
20260903235019 23 284 4.8 9.7 0.00 0.00 0.00 70 1014.6
20260903234515 23 255 8.0 11.3 0.00 0.00 0.00 71 1014.6
20260903234010 24 263 4.8 9.7 0.00 0.00 0.00 70 1014.9
20260903233506 24 341 0.0 3.2 0.00 0.00 0.00 71 1014.9
20260903233001 23 313 4.8 11.3 0.00 0.00 0.00 72 1014.9
20260903232457 24 225 4.8 9.7 0.00 0.00 0.00 71 1014.9
20260903231956 24 217 9.7 11.3 0.00 0.00 0.00 69 1014.9
20260903231451 24 246 4.8 9.7 0.00 0.00 0.00 70 1014.9
20260903230945 25 224 6.4 9.7 0.00 0.00 0.00 69 1014.9
20260903230442 23 238 3.2 9.7 0.00 0.00 0.00 71 1014.9
20260903225938 25 265 4.8 9.7 0.00 0.00 0.00 68 1015.3
20260903225433 24 246 4.8 12.9 0.00 0.00 0.00 70 1014.9
20260903224929 24 335 4.8 11.3 0.00 0.00 0.00 70 1014.9
20260903224425 24 203 6.4 11.3 0.00 0.00 0.00 71 1015.3
20260903223921 25 315 1.6 9.7 0.00 0.00 0.00 70 1015.3
20260903223420 25 199 6.4 9.7 0.00 0.00 0.00 68 1015.3
20260903222919 25 287 1.6 6.4 0.00 0.00 0.00 69 1015.3
20260903222415 25 325 3.2 6.4 0.00 0.00 0.00 69 1015.6
20260903221915 25 328 1.6 9.7 0.00 0.00 0.00 68 1015.3
20260903221414 24 200 3.2 9.7 0.00 0.00 0.00 70 1015.3
20260903220912 24 259 4.8 6.4 0.00 0.00 0.00 69 1015.6
20260903220406 24 218 6.4 11.3 0.00 0.00 0.00 70 1015.6
20260903215904 25 209 6.4 11.3 0.00 0.00 0.00 69 1016.0
20260903215401 25 221 4.8 11.3 0.00 0.00 0.00 69 1015.6
20260903214859 25 257 1.6 6.4 0.00 0.00 0.00 70 1015.6
20260903214355 25 347 3.2 6.4 0.00 0.00 0.00 69 1016.0
20260903213854 24 270 4.8 11.3 0.00 0.00 0.00 71 1015.6
20260903213349 24 267 8.0 11.3 0.00 0.00 0.00 70 1016.0
20260903212846 25 322 4.8 9.7 0.00 0.00 0.00 69 1015.6
20260903212342 24 234 6.4 14.5 0.00 0.00 0.00 70 1016.0
20260903211841 24 295 4.8 11.3 0.00 0.00 0.00 69 1016.0
20260903211337 24 262 1.6 11.3 0.00 0.00 0.00 70 1015.6
20260903210833 24 342 6.4 12.9 0.00 0.00 0.00 69 1015.6
20260903210327 24 318 6.4 12.9 0.00 0.00 0.00 69 1015.6
20260903205822 24 244 6.4 11.3 0.00 0.00 0.00 69 1016.0
20260903205322 24 228 8.0 12.9 0.00 0.00 0.00 69 1016.3
20260903204817 24 203 9.7 12.9 0.00 0.00 0.00 69 1016.0
20260903204313 25 320 6.4 11.3 0.00 0.00 0.00 69 1016.0
20260903203808 24 252 9.7 14.5 0.00 0.00 0.00 69 1016.0
20260903203304 24 188 6.4 11.3 0.00 0.00 0.00 69 1016.3
20260903202803 24 222 6.4 11.3 0.00 0.00 0.00 69 1016.0
20260903202300 24 188 9.7 11.3 0.00 0.00 0.00 68 1016.0
20260903201759 25 203 3.2 9.7 0.00 0.00 0.00 69 1016.0
20260903201254 25 255 4.8 12.9 0.00 0.00 0.00 67 1016.0
20260903200753 25 295 4.8 12.9 0.00 0.00 0.00 68 1016.0
20260903200248 24 222 4.8 12.9 0.00 0.00 0.00 68 1016.0
20260903195743 25 218 6.4 11.3 0.00 0.00 0.00 67 1016.0
20260903195240 25 191 3.2 11.3 0.00 0.00 0.00 66 1016.0
20260903194739 25 274 4.8 11.3 0.00 0.00 0.00 66 1016.3
20260903194235 25 152 8.0 14.5 0.00 0.00 0.00 67 1016.3
20260903193730 25 241 6.4 9.7 0.00 0.00 0.00 66 1016.3